Home   Weather   Santorini   Past weeks

Flag for Greece Past Weather in Santorini, Greece — Yesterday and Last 2 Weeks

Now
75 °F

Sunny.


Feels Like: 77 °F
Forecast: 72 / 77 °F
Wind: 16 mph from North

Location: Santorini Island

Current Time: Sep 21, 2018 at 11:29:01 am

Latest Report: Sep 21, 2018 at 10:20 am


Visibility: 10 mi

Pressure: 29.98 "Hg

Humidity: 65%

Dew Point: 63 °F

Location of SantoriniLocation

Past Weather in Santorini — Graph

°F

Santorini Temperature Yesterday

Maximum temperature yesterday: 79 °F (at 2:20 pm)
Minimum temperature yesterday: 68 °F (at 9:50 pm)
Average temperature yesterday: 73 °F

High & Low Weather Summary for the Past Weeks

 TemperatureHumidityPressure
High86 °F (Sep 8, 3:50 pm)89% (Sep 8, 3:20 am)30.07 "Hg (Sep 8, 3:20 am)
Low68 °F (Sep 15, 5:20 am)37% (Sep 11, 3:20 pm)29.80 "Hg (Sep 6, 10:20 am)
Average77 °F64%29.95 "Hg
* Reported Sep 6 10:20 am — Sep 21 10:20 am, Santorini. Weather by CustomWeather, © 2018

Note: Actual official high and low records may vary slightly from our data, if they occured in-between our weather recording intervals... More about our weather records

Advertising

Santorini Weather History for the Previous 24 Hours

Scroll right to see more
 ConditionsComfort  
Time TempWeatherWind HumidityBarometerVisibility
10:20 am
Fri, Sep 21
75 °FSunny.16 mph65%29.98 "Hg10 mi
9:50 am75 °FSunny.16 mph65%29.98 "Hg10 mi
9:20 am73 °FSunny.17 mph74%29.95 "Hg10 mi
8:50 am73 °FSunny.17 mph74%29.95 "Hg10 mi
8:20 am72 °FSunny.15 mph78%29.95 "Hg10 mi
7:50 am72 °FSunny.15 mph78%29.95 "Hg10 mi
7:20 am70 °FSunny.7 mph78%29.92 "Hg10 mi
6:50 am70 °FClear.6 mph78%29.92 "Hg10 mi
6:20 am70 °FPassing clouds.12 mph78%29.92 "HgN/A
5:50 am70 °FPassing clouds.12 mph78%29.92 "HgN/A
5:20 am70 °FClear.9 mph78%29.92 "Hg10 mi
4:20 am70 °FClear.8 mph78%29.92 "Hg10 mi
3:50 am70 °FClear.14 mph73%29.92 "Hg10 mi
3:20 am70 °FClear.10 mph73%29.95 "Hg10 mi
2:50 am72 °FClear.10 mph73%29.95 "Hg10 mi
2:20 am72 °FClear.10 mph69%29.92 "Hg10 mi
1:50 am72 °FClear.8 mph69%29.95 "Hg10 mi
1:20 am72 °FClear.10 mph73%29.95 "Hg10 mi
12:50 am72 °FClear.14 mph73%29.95 "Hg10 mi
12:20 am72 °FClear.16 mph73%29.95 "Hg10 mi
11:50 pm
Thu, Sep 20
72 °FClear.17 mph73%29.95 "Hg10 mi
11:20 pm72 °FClear.22 mph73%29.95 "Hg10 mi
10:50 pm68 °FClear.22 mph78%29.98 "Hg10 mi
10:20 pm68 °FClear.15 mph83%29.98 "Hg10 mi
9:50 pm68 °FClear.17 mph83%29.98 "Hg10 mi
9:20 pm72 °FClear.17 mph73%29.98 "Hg10 mi
8:50 pm72 °FClear.17 mph69%29.95 "Hg10 mi
8:20 pm72 °FClear.17 mph73%29.95 "Hg10 mi
7:50 pm73 °FClear.17 mph69%29.95 "Hg10 mi
7:20 pm73 °FPassing clouds.17 mph69%29.95 "HgN/A
6:50 pm73 °FPassing clouds.15 mph69%29.95 "HgN/A
6:20 pm75 °FScattered clouds.16 mph65%29.95 "HgN/A
5:50 pm75 °FScattered clouds.15 mph65%29.95 "HgN/A
5:20 pm77 °FScattered clouds.15 mph61%29.95 "HgN/A
4:50 pm77 °FScattered clouds.15 mph61%29.95 "HgN/A
4:20 pm77 °FScattered clouds.15 mph61%29.95 "HgN/A
3:50 pm77 °FScattered clouds.16 mph61%29.95 "HgN/A
3:20 pm77 °FScattered clouds.17 mph61%29.95 "HgN/A
2:50 pm77 °FScattered clouds.18 mph61%29.95 "HgN/A
2:20 pm79 °FPassing clouds.17 mph58%29.95 "HgN/A
1:50 pm77 °FPassing clouds.16 mph61%29.98 "HgN/A
1:20 pm77 °FPassing clouds.20 mph61%29.98 "HgN/A
12:50 pm77 °FPassing clouds.18 mph61%29.98 "HgN/A
12:20 pm77 °FPassing clouds.16 mph61%29.98 "HgN/A
11:50 am77 °FPassing clouds.18 mph61%29.98 "HgN/A
11:20 am75 °FPassing clouds.20 mph65%29.98 "HgN/A
Weather by CustomWeather, © 2018

See weather overview